sat.trackr.live / text

‹ back to catalog

STARLINK-34775

NORAD 64934 · 2025-158C

PAYLOAD ACTIVE UNKNOWN

§ Identity

Operator
Country
US
Launch date
2025-07-27
Launch site
AFWTR
Launch vehicle
Mass (kg)
RCS (m²)

Purposes: comms

External: N2YO · Heavens-Above · Gunter

§ Orbital elements

Epoch: 2026-05-25T02:37:16.017024Z

Period
95.64 min
Inclination
97.4530°
Eccentricity
0.0000955
Mean motion
15.05658768 rev/d
Perigee alt
548.8 km
Apogee alt
550.1 km
Semi-major
6,927.6 km
B*
3.5651e-4
RAAN
9.0159°
Arg perigee
81.7164°
Mean anomaly
278.4172°
Rev number
4,685

§ Raw data

STARLINK-347751 64934U 25158C   26145.10921316  .00005090  00000+0  35651-3 0  99942 64934  97.4530   9.0159 0000955  81.7164 278.4172 15.05658768 46851

JSON: /api/v1/satellites/64934 · /tle

For live sub-satellite position, see the globe view (requires WebGL).

§ Visibility from observer

Set your observer location to see the next 7 days of passes ≥ 10°. The values pass through the URL so the page stays shareable.

No JS? Fill the form by hand. The geolocation button needs JavaScript.